ROMMA est une association bénévole à but non lucratif. Votre soutien est indispensable : ADHERER à ROMMA ou FAIRE un DON

Chambon - (38, Isère)

Oisans (2460 m)   Longitude: 06° 10' 42" E   Latitude: 45° 01' 32" N Station partenaire n°803
 

Détail journalier du     <<     >>

Température Humidité Vent Dir Rafale Dir. rafale Neige 1 Neige 2
Heure (°C) (%) (km/h) (km/h) (cm) (cm)
01:00 4.3526NNE22NE03
02:00 5.34411NE24NE03
03:00 4.7446NNE18NNE03
04:00 5.0424ENE9ENE04
05:00 4.1438SO15OSO03
06:00 3.25011OSO18OSO03
07:00 4.14312SSO18OSO03
08:00 4.04811SSO19OSO03
09:00 4.05213OSO20OSO03
10:00 5.64810SSO18OSO03
11:00 5.25412SSO20OSO03
12:00 5.45713OSO21OSO03
13:00 5.75916OSO24O04
14:00 5.56716OSO24OSO04
15:00 5.55314OSO21OSO14
16:00 4.56014SO22OSO14
17:00 3.08716SO30SO03
18:00 2.59614SO32SO03
19:00 2.59611SSO27OSO03
20:00 2.19814SO37OSO00
21:00 1.110021SO42SO03
22:00 1.010016SO42SO02
23:00 0.910014SO33SO03
minuit 0.010024SO42O04

Graphique du 06-10-2019

 

Serveur OMMA